Regional Weather Roundup
Issued by NWS

Home | Current Version | Previous Version | Graphics & Text | Print | Product List | Glossary On
Versions: 1 2 3 4 5 6 7 8 9 10 11 12 13 14 15 16 17 18 19 20 21 22 23 24 25 26 27 28
000
ASUS45 KPSR 251610
RWRAZ

ARIZONA HOURLY REGIONAL WEATHER ROUNDUP
NATIONAL WEATHER SERVICE PHOENIX AZ
900 AM MST SUN SEP 25 2016

NOTE: FAIR INDICATES FEW OR NO CLOUDS BELOW 12,000 FEET WITH NO
SIGNIFICANT WEATHER AND/OR OBSTRUCTIONS TO VISIBILITY.

AZZ001>003-036-251700-
NORTHWEST ARIZONA

CITY           SKY/WX    TMP DP  RH WIND       PRES   REMARKS
BULLHEAD CITY  SUNNY     79  37  22 N25G38    30.14S
KINGMAN        SUNNY     66  32  28 N9        30.26R
$$

AZZ004>008-015-016-018-251700-
NORTH CENTRAL ARIZONA

CITY           SKY/WX    TMP DP  RH WIND       PRES   REMARKS
GRAND CANYON   SUNNY     54  32  43 E18G28    30.42R
PRESCOTT       SUNNY     63  34  33 NE14G26   30.28S
FLAGSTAFF      SUNNY     51  33  50 NE25G35   30.37R
PAYSON         SUNNY     63  34  34 NE14G20   30.28S
PAGE           SUNNY     65  33  30 N10       30.37R
$$

AZZ009>014-017-251700-
NORTHEAST ARIZONA

CITY           SKY/WX    TMP DP  RH WIND       PRES   REMARKS
WINSLOW        SUNNY     60  35  39 NW7       30.35R
SAINT JOHNS    SUNNY     55  31  39 N5        30.33R
WINDOW ROCK    SUNNY     54  33  45 VRB3      30.40R
SHOW LOW       SUNNY     52  28  40 N13       30.35R
$$

AZZ023-251700-
GREATER PHOENIX AREA

CITY           SKY/WX    TMP DP  RH WIND       PRES   REMARKS
PHOENIX        SUNNY     80  40  23 VRB5      30.00S
BUCKEYE        SUNNY     82  36  18 NE10      30.03R
GLENDALE       SUNNY     82  37  20 N13       30.03S
LUKE AFB       SUNNY     82  38  20 N16       30.01S
DEER VALLEY    SUNNY     82  35  18 NE12      30.02S
SCOTTSDALE     SUNNY     82  35  18 NE15G22   30.04S
MESA-FALCON    SUNNY    N/A N/A N/A N14       30.00R
MESA-GATEWAY   SUNNY     79  36  21 VRB5      30.02R
CHANDLER       SUNNY     81  36  19 NW9       30.01R
$$

AZZ027-028-251700-
SOUTHWEST MARICOPA COUNTY AND PINAL COUNTY

CITY           SKY/WX    TMP DP  RH WIND       PRES   REMARKS
CASA GRANDE    SUNNY     75  34  22 CALM      30.04R
GILA BEND      FAIR      79  37  22 NE7       29.99S
$$

AZZ503-504-507>509-251700-
SOUTHEAST ARIZONA

CITY           SKY/WX    TMP DP  RH WIND       PRES   REMARKS
TUCSON         SUNNY     69  34  27 CALM      30.07R
DAVIS-MONTHAN  SUNNY     75  32  20 E1        30.06R
RYAN FIELD     SUNNY     68  36  30 NE3       30.07R
NOGALES        SUNNY     67  34  29 CALM      30.11R
SIERRA VISTA   SUNNY     70  27  20 E7        30.17S
DOUGLAS        MOSUNNY   69  34  27 CALM      30.15R
SAFFORD        MOSUNNY   67  36  31 SW3       30.12R
$$

AZZ020-021-025-026-031-251700-
SOUTHWEST ARIZONA

CITY           SKY/WX    TMP DP  RH WIND       PRES   REMARKS
YUMA           SUNNY     84  35  17 N16       29.98S
$$

CAZ031-033-041-043-047-048-061-251700-
SOUTHERN CALIFORNIA

CITY           SKY/WX    TMP DP  RH WIND       PRES   REMARKS
DOWNTOWN L.A.  SUNNY     75  47  36 CALM      30.01R
L.A. AIRPORT   SUNNY     77  38  24 CALM      30.01S
SAN DIEGO      SUNNY     82  48  30 N3        30.01R
BURBANK        SUNNY     78  35  21 W3        30.04R
ONTARIO        SUNNY     88  25  10 E21G35    30.02R
RIVERSIDE      SUNNY     82  39  21 E7        30.05S
PALM SPRINGS   SUNNY     88  33  14 N10       30.10R
EL CENTRO NAS  SUNNY     85  43  22 N12       30.03R
IMPERIAL       SUNNY     84  51  31 N9        30.01R
BLYTHE         SUNNY     84  37  18 N20G31    30.04R
NEEDLES        SUNNY     82  39  21 N26G36    30.13S
$$

NVZ020-UTZ003-251700-
SOUTHERN NEVADA-UTAH

CITY           SKY/WX    TMP DP  RH WIND       PRES   REMARKS
LAS VEGAS      SUNNY     75  32  20 NE7       30.27F
SALT LAKE CITY SUNNY     55  40  56 CALM      30.48R
$$

NMZ009-TXZ055-251700-
NEW MEXICO-WEST TEXAS

CITY           SKY/WX    TMP DP  RH WIND       PRES   REMARKS
ALBUQUERQUE    CLOUDY    60  33  36 VRB5      30.34R
EL PASO        CLOUDY    72  32  23 N13       30.15R
$$


........................KEY........................
SKY/WX - SKY CONDITION/WEATHER
TMP    - TEMPERATURE IN FAHRENHEIT
DP     - DEW POINT IN FAHRENHEIT
RH     - RELATIVE HUMIDITY IN PERCENT
WIND   - DIRECTION AND SPEED IN MILES PER HOUR (MPH)
VRB    - VARIABLE WIND DIRECTION
PRES   - MEAN SEA LEVEL PRESSURE IN INCHES OF MERCURY
         F - FALLING PRESSURE   R - RISING PRESSURE
         S - STEADY PRESSURE
VSB    - VISIBILITY IN MILES
HX     - HEAT INDEX IN FAHRENHEIT
WCI    - WIND CHILL INDEX IN FAHRENHEIT
TC     - TEMPERATURE IN CELSIUS WHICH IS ALSO KNOWN AS
         TEMPERATURE IN CENTIGRADE
AFB    - AIR FORCE BASE
         LUKE AFB IS LUKE AIR FORCE BASE
         DAVIS-MONTHAN IS DAVIS-MONTHAN AIR FORCE BASE
NAS    - NAVAL AIR STATION
         EL CENTRO NAS IS EL CENTRO NAVAL AIR STATION
N/A    - NOT AVAILABLE





USA.gov is the U.S. government's official web portal to all federal, state and local government web resources and services.